EW3334 Weather Reports


Display with metric or nautical units.
time (UTC)temp
F
wind
direction
speed
MPH
gust
MPH
rain 1hr
in
rain 24hr
in
rain mn
in
humidity
%
barometer
mb
20260507060515 48 271 0.0 8.0 0.00 0.28 0.00 88 1005.6
20260507060015 48 314 2.0 8.0 0.00 0.28 0.00 88 1005.9
20260507055514 48 284 3.0 10.0 0.00 0.28 0.00 89 1006.1
20260507055014 48 240 1.0 10.0 0.00 0.28 0.00 89 1006.3
20260507054513 48 294 2.0 5.0 0.00 0.28 0.00 89 1006.2
20260507054012 48 167 1.0 5.0 0.00 0.28 0.00 89 1006.0
20260507053512 48 212 1.0 5.0 0.00 0.28 0.00 89 1006.1
20260507053011 48 284 1.0 6.0 0.00 0.28 0.00 89 1006.1
20260507052510 48 314 1.0 6.0 0.00 0.28 0.00 89 1006.1
20260507052012 49 327 2.0 5.0 0.00 0.28 0.00 89 1006.1
20260507051509 49 285 2.0 7.0 0.00 0.28 0.00 90 1006.1
20260507051007 49 330 1.0 8.0 0.00 0.28 0.00 90 1006.1
20260507050506 49 283 3.0 6.0 0.00 0.28 0.00 90 1006.2
20260507050009 49 219 1.0 4.0 0.00 0.28 0.00 90 1005.9
20260507045510 49 263 0.0 3.0 0.00 0.28 0.00 91 1006.0
20260507045006 50 274 1.0 6.0 0.00 0.28 0.00 91 1005.8
20260507044506 50 310 2.0 6.0 0.00 0.28 0.00 91 1005.9
20260507044006 50 194 1.0 7.0 0.00 0.28 0.00 91 1005.9
20260507043504 50 220 3.0 7.0 0.00 0.28 0.00 91 1006.0
20260507043003 50 303 3.0 9.0 0.00 0.28 0.00 91 1005.9
20260507042504 50 289 5.0 9.0 0.00 0.28 0.00 91 1006.0
20260507042003 50 287 1.0 7.0 0.00 0.28 0.00 91 1006.1
20260507041506 50 236 0.0 5.0 0.00 0.28 0.00 91 1006.1
20260507041001 50 230 1.0 6.0 0.00 0.28 0.00 91 1006.0
20260507040601 50 255 1.0 7.0 0.01 0.28 0.00 90 1006.0
20260507040101 50 254 4.0 9.0 0.01 0.28 0.00 90 1005.7
20260507035559 50 275 4.0 9.0 0.03 0.28 0.28 90 1005.7
20260507035059 50 243 4.0 11.0 0.03 0.28 0.28 90 1005.7
20260507034607 51 299 2.0 13.0 0.03 0.28 0.28 90 1005.8
20260507034056 51 286 6.0 13.0 0.03 0.28 0.28 89 1005.6
20260507033559 51 221 3.0 12.0 0.03 0.28 0.28 89 1005.6
20260507033056 51 242 4.0 17.0 0.03 0.28 0.28 89 1005.7
20260507032554 51 336 5.0 17.0 0.03 0.28 0.28 89 1005.4
20260507032053 52 290 6.0 16.0 0.03 0.28 0.28 89 1005.4
20260507031551 52 290 7.0 17.0 0.03 0.28 0.28 90 1005.3
20260507031052 53 282 5.0 17.0 0.03 0.28 0.28 90 1005.3
20260507030548 53 213 5.0 16.0 0.02 0.27 0.27 91 1005.4
20260507030051 54 306 4.0 16.0 0.02 0.27 0.27 91 1005.5
20260507025545 55 325 6.0 14.0 0.00 0.25 0.25 92 1005.5
20260507025044 55 268 4.0 12.0 0.00 0.25 0.25 92 1005.5
20260507024543 56 260 5.0 13.0 0.01 0.25 0.25 92 1005.4
20260507024042 56 320 3.0 13.0 0.01 0.25 0.25 93 1005.2
20260507023540 57 252 4.0 12.0 0.01 0.25 0.25 93 1005.2
20260507023038 57 289 6.0 12.0 0.01 0.25 0.25 94 1005.0
20260507022538 58 304 2.0 9.0 0.01 0.25 0.25 94 1004.9
20260507022038 58 289 3.0 11.0 0.01 0.25 0.25 94 1004.7
20260507021536 58 309 4.0 11.0 0.01 0.25 0.25 94 1004.5
20260507021035 58 269 2.0 6.0 0.01 0.25 0.25 94 1004.6
20260507020536 58 271 1.0 6.0 0.01 0.25 0.25 94 1004.5
20260507020035 58 189 0.0 2.0 0.01 0.25 0.25 94 1004.4
20260507015534 58 158 0.0 2.0 0.01 0.25 0.25 94 1004.3
20260507015034 58 158 0.0 2.0 0.01 0.25 0.25 94 1004.3
20260507014549 58 158 0.0 3.0 0.00 0.24 0.24 94 1004.3
20260507014034 58 158 1.0 3.0 0.00 0.24 0.24 94 1004.3
20260507013534 58 179 1.0 3.0 0.00 0.24 0.24 94 1004.4
20260507013043 58 174 1.0 3.0 0.00 0.24 0.24 94 1004.3
20260507012535 58 190 1.0 3.0 0.00 0.24 0.24 94 1004.3
20260507012034 58 186 1.0 3.0 0.00 0.24 0.24 94 1004.3
20260507011538 58 186 1.0 4.0 0.00 0.24 0.24 94 1004.3
20260507011033 58 184 2.0 4.0 0.00 0.24 0.24 94 1004.3
20260507010532 58 167 0.0 3.0 0.00 0.24 0.24 94 1004.3
20260507010034 58 182 1.0 3.0 0.00 0.24 0.24 94 1004.4
20260507005532 58 166 0.0 3.0 0.00 0.24 0.24 94 1004.3
20260507005031 58 166 0.0 3.0 0.00 0.24 0.24 94 1004.3
20260507004532 58 166 2.0 3.0 0.00 0.24 0.24 94 1004.3
20260507004032 58 142 0.0 3.0 0.00 0.24 0.24 94 1004.2
20260507003531 58 142 0.0 3.0 0.00 0.24 0.24 94 1004.1
20260507003031 58 179 2.0 3.0 0.00 0.24 0.24 94 1004.1
20260507002531 58 169 1.0 4.0 0.00 0.24 0.24 94 1004.1
20260507002032 58 156 1.0 3.0 0.00 0.24 0.24 94 1004.0
20260507001531 58 152 1.0 3.0 0.00 0.24 0.24 94 1004.1
20260507001031 58 141 1.0 4.0 0.00 0.24 0.24 93 1004.0
20260507000533 58 169 2.0 4.0 0.00 0.24 0.24 93 1004.0
20260507000032 58 164 2.0 4.0 0.00 0.24 0.24 93 1003.9
20260506235529 58 148 1.0 6.0 0.00 0.24 0.24 93 1003.8
20260506235029 58 173 1.0 6.0 0.00 0.24 0.24 93 1003.9
20260506234529 58 173 1.0 4.0 0.00 0.24 0.24 93 1003.8
20260506234028 58 181 2.0 4.0 0.00 0.24 0.24 93 1003.8
20260506233527 58 157 1.0 4.0 0.00 0.24 0.24 93 1003.8
20260506233027 58 140 2.0 4.0 0.00 0.24 0.24 93 1003.9
20260506232526 58 181 2.0 5.0 0.00 0.24 0.24 93 1004.0
20260506232026 58 144 1.0 5.0 0.00 0.24 0.24 93 1003.9
20260506231527 59 166 1.0 4.0 0.00 0.24 0.24 93 1003.9
20260506231025 58 148 2.0 4.0 0.00 0.24 0.24 93 1003.9
20260506230524 59 161 1.0 4.0 0.00 0.24 0.24 93 1004.0
20260506230024 59 155 1.0 4.0 0.01 0.24 0.24 93 1004.1
20260506225524 59 159 3.0 4.0 0.01 0.24 0.24 93 1004.0
20260506225027 59 144 2.0 7.0 0.01 0.24 0.24 93 1004.1
20260506224524 59 144 1.0 7.0 0.01 0.24 0.24 93 1004.0
20260506224024 59 169 2.0 4.0 0.01 0.24 0.24 93 1004.0
20260506223523 59 161 1.0 4.0 0.02 0.24 0.24 92 1004.1
20260506223024 59 171 1.0 4.0 0.02 0.24 0.24 92 1004.2
20260506222522 59 151 2.0 4.0 0.02 0.24 0.24 92 1004.2
20260506222021 59 175 1.0 5.0 0.02 0.24 0.24 92 1004.2
20260506221520 59 153 2.0 6.0 0.03 0.24 0.24 92 1004.2
20260506221019 59 175 3.0 5.0 0.03 0.24 0.24 92 1004.3
20260506220520 59 173 3.0 5.0 0.04 0.24 0.24 92 1004.3
20260506220018 59 164 2.0 5.0 0.03 0.23 0.23 92 1004.3
20260506215517 59 159 1.0 7.0 0.03 0.23 0.23 92 1004.4
20260506215016 59 173 3.0 7.0 0.03 0.23 0.23 92 1004.3
20260506214516 59 163 2.0 5.0 0.03 0.23 0.23 92 1004.4
20260506214014 59 152 2.0 5.0 0.04 0.23 0.23 92 1004.4
20260506213515 60 162 2.0 5.0 0.03 0.22 0.22 92 1004.4
20260506213016 60 126 2.0 5.0 0.03 0.22 0.22 92 1004.4
20260506212513 60 149 2.0 6.0 0.03 0.22 0.22 92 1004.5
20260506212012 60 150 3.0 6.0 0.02 0.21 0.21 92 1004.6
20260506211511 60 176 1.0 6.0 0.02 0.21 0.21 92 1004.6
20260506211011 60 177 3.0 6.0 0.02 0.21 0.21 92 1004.5
20260506210511 60 172 2.0 7.0 0.01 0.20 0.20 91 1004.6
20260506210014 60 169 2.0 5.0 0.02 0.20 0.20 91 1004.6
20260506205510 60 155 3.0 5.0 0.03 0.20 0.20 92 1004.7
20260506205009 61 173 2.0 5.0 0.03 0.20 0.20 92 1004.7
20260506204508 61 169 2.0 5.0 0.04 0.20 0.20 91 1004.7
20260506204008 61 173 2.0 5.0 0.03 0.19 0.19 91 1004.7
20260506203508 61 150 2.0 4.0 0.03 0.19 0.19 91 1004.8
20260506203008 61 151 1.0 6.0 0.03 0.19 0.19 91 1004.8
20260506202508 61 148 2.0 7.0 0.03 0.19 0.19 91 1004.8
20260506202013 61 186 2.0 7.0 0.03 0.19 0.19 91 1004.9
20260506201509 61 173 3.0 5.0 0.03 0.19 0.19 91 1004.9
20260506201007 61 164 1.0 4.0 0.03 0.19 0.19 91 1004.9
20260506200506 61 147 1.0 4.0 0.03 0.19 0.19 91 1004.9
20260506200009 61 165 1.0 3.0 0.02 0.18 0.18 91 1004.9
20260506195506 61 178 1.0 3.0 0.02 0.17 0.17 91 1005.0
20260506195006 61 180 2.0 3.0 0.02 0.17 0.17 90 1005.1
20260506194508 61 188 1.0 3.0 0.02 0.16 0.16 90 1005.1
20260506194009 61 167 1.0 3.0 0.03 0.16 0.16 90 1005.1
20260506193509 61 167 1.0 3.0 0.04 0.16 0.16 90 1005.0
20260506193006 61 164 1.0 3.0 0.05 0.16 0.16 90 1005.0
20260506192505 61 159 1.0 3.0 0.05 0.16 0.16 90 1004.9
20260506192007 61 143 1.0 3.0 0.07 0.16 0.16 89 1004.8
20260506191504 62 157 1.0 3.0 0.08 0.16 0.16 89 1004.7
20260506191005 62 247 0.0 2.0 0.10 0.16 0.16 89 1004.9
20260506190503 62 247 0.0 2.0 0.11 0.16 0.16 88 1005.0
20260506190003 62 247 0.0 2.0 0.12 0.16 0.16 87 1005.1
20260506185600 62 247 0.0 1.0 0.11 0.15 0.15 87 1005.1
20260506185100 62 247 0.0 2.0 0.12 0.15 0.15 86 1005.2
20260506184558 62 247 0.0 3.0 0.12 0.14 0.14 85 1005.3
20260506184058 63 247 1.0 3.0 0.12 0.13 0.13 85 1005.6
20260506183559 63 247 0.0 2.0 0.12 0.12 0.12 84 1005.6
20260506183057 63 247 1.0 2.0 0.11 0.11 0.11 84 1005.7
20260506182555 64 247 0.0 1.0 0.11 0.11 0.11 83 1005.8
20260506182058 64 247 0.0 2.0 0.09 0.09 0.09 81 1005.9
20260506181554 64 247 0.0 4.0 0.08 0.08 0.08 81 1005.8
20260506181054 65 269 1.0 4.0 0.06 0.06 0.06 79 1005.9
20260506180553 65 315 0.0 2.0 0.05 0.05 0.05 78 1005.8
20260506180103 65 315 0.0 5.0 0.04 0.04 0.04 77 1006.0
20260506175553 66 258 0.0 5.0 0.03 0.03 0.03 75 1006.1
20260506175054 67 159 1.0 4.0 0.03 0.03 0.03 74 1006.1
20260506174552 67 168 1.0 4.0 0.02 0.02 0.02 72 1006.1
20260506174052 68 189 2.0 4.0 0.01 0.01 0.01 70 1006.1
20260506173552 68 146 1.0 4.0 0.00 0.00 0.00 68 1005.9
20260506173107 69 170 1.0 5.0 0.00 0.00 0.00 65 1005.7
20260506172555 69 182 2.0 5.0 0.00 0.00 0.00 64 1005.6
20260506172051 69 159 2.0 5.0 0.00 0.00 0.00 64 1005.4
20260506171558 70 169 3.0 5.0 0.00 0.00 0.00 63 1005.6
20260506171051 70 155 2.0 5.0 0.00 0.00 0.00 62 1005.5
20260506170549 70 160 2.0 6.0 0.00 0.00 0.00 62 1005.6
20260506170049 70 180 3.0 7.0 0.00 0.00 0.00 61 1005.6
20260506165549 70 155 4.0 7.0 0.00 0.00 0.00 60 1005.6
20260506165048 70 172 2.0 9.0 0.00 0.00 0.00 61 1005.6
20260506164548 70 178 4.0 9.0 0.00 0.00 0.00 62 1005.7
20260506164051 70 170 2.0 6.0 0.00 0.00 0.00 62 1005.8
20260506163546 70 161 3.0 6.0 0.00 0.00 0.00 62 1005.9
20260506163049 70 165 3.0 6.0 0.00 0.00 0.00 62 1005.9
20260506162546 70 169 2.0 6.0 0.00 0.00 0.00 62 1006.0
20260506162045 70 113 3.0 6.0 0.00 0.00 0.00 63 1006.1
20260506161552 70 154 2.0 4.0 0.00 0.00 0.00 63 1006.2
20260506161042 70 173 2.0 5.0 0.00 0.00 0.00 64 1006.3
20260506160542 69 59 2.0 6.0 0.00 0.00 0.00 64 1006.4
20260506160040 69 178 2.0 7.0 0.00 0.00 0.00 65 1006.6
20260506155538 69 175 4.0 7.0 0.00 0.00 0.00 65 1006.7
20260506155037 69 153 4.0 6.0 0.00 0.00 0.00 65 1006.8
20260506154536 69 154 3.0 6.0 0.00 0.00 0.00 65 1006.9
20260506154036 69 167 2.0 6.0 0.00 0.00 0.00 65 1007.0
20260506153536 69 161 3.0 6.0 0.00 0.00 0.00 65 1006.9
20260506153038 69 157 2.0 7.0 0.00 0.00 0.00 66 1007.1
20260506152535 69 144 2.0 7.0 0.00 0.00 0.00 65 1007.2
20260506152035 69 162 4.0 7.0 0.00 0.00 0.00 66 1007.3
20260506151535 69 157 4.0 7.0 0.00 0.00 0.00 66 1007.5
20260506151034 69 173 4.0 8.0 0.00 0.00 0.00 66 1007.5
20260506150533 68 167 3.0 8.0 0.00 0.00 0.00 67 1007.5
20260506150035 68 167 2.0 5.0 0.00 0.00 0.00 67 1007.2
20260506145532 68 158 3.0 6.0 0.00 0.00 0.00 67 1007.1
20260506145032 68 174 3.0 6.0 0.00 0.00 0.00 67 1007.5
20260506144531 68 159 2.0 6.0 0.00 0.00 0.00 68 1007.4
20260506144030 68 150 4.0 6.0 0.00 0.00 0.00 68 1007.3
20260506143530 68 174 3.0 6.0 0.00 0.00 0.00 68 1007.3
20260506143029 67 140 4.0 6.0 0.00 0.00 0.00 69 1007.3
20260506142528 67 179 2.0 7.0 0.00 0.00 0.00 69 1007.2
20260506142026 67 171 3.0 6.0 0.00 0.00 0.00 69 1007.2
20260506141525 67 194 2.0 4.0 0.00 0.00 0.00 70 1007.3
20260506141024 66 127 2.0 6.0 0.00 0.00 0.00 71 1007.2
20260506140524 66 121 1.0 6.0 0.00 0.00 0.00 71 1006.9
20260506140023 66 180 2.0 7.0 0.00 0.00 0.00 72 1007.0
20260506135526 65 174 4.0 7.0 0.00 0.00 0.00 72 1007.0
20260506135027 65 172 3.0 5.0 0.00 0.00 0.00 72 1007.2
20260506134541 65 163 3.0 5.0 0.00 0.00 0.00 73 1007.3
20260506134018 64 133 2.0 7.0 0.00 0.00 0.00 73 1007.3
20260506133516 64 172 3.0 7.0 0.00 0.00 0.00 74 1007.4
20260506133016 64 175 2.0 4.0 0.00 0.00 0.00 74 1007.4
20260506132514 64 163 2.0 4.0 0.00 0.00 0.00 74 1007.5
20260506132013 64 142 1.0 6.0 0.00 0.00 0.00 74 1007.5
20260506131513 64 173 3.0 6.0 0.00 0.00 0.00 74 1007.6
20260506131011 64 188 2.0 6.0 0.00 0.00 0.00 74 1007.6
20260506130510 63 178 3.0 6.0 0.00 0.00 0.00 75 1007.6
20260506130010 63 150 2.0 5.0 0.00 0.00 0.00 75 1007.6
20260506125509 63 217 1.0 5.0 0.00 0.00 0.00 75 1007.6
20260506125008 63 184 2.0 5.0 0.00 0.00 0.00 75 1007.7
20260506124513 63 182 2.0 6.0 0.00 0.00 0.00 76 1007.7
20260506124007 62 171 2.0 6.0 0.00 0.00 0.00 76 1007.7
20260506123507 62 171 1.0 4.0 0.00 0.00 0.00 76 1007.8
20260506123006 62 171 1.0 4.0 0.00 0.00 0.00 76 1007.7
20260506122506 62 166 1.0 5.0 0.00 0.00 0.00 76 1007.6
20260506122006 62 171 2.0 6.0 0.00 0.00 0.00 76 1007.6
20260506121508 62 157 3.0 7.0 0.00 0.00 0.00 77 1007.6
20260506121003 62 161 2.0 7.0 0.00 0.00 0.00 77 1007.9
20260506120503 61 184 3.0 6.0 0.00 0.00 0.00 78 1008.0
20260506120009 61 177 2.0 6.0 0.00 0.00 0.00 78 1008.1
20260506115503 61 163 2.0 6.0 0.00 0.00 0.00 78 1008.0
20260506115003 60 176 2.0 4.0 0.00 0.00 0.00 78 1008.0
20260506114503 60 163 2.0 3.0 0.00 0.00 0.00 78 1008.2
20260506114002 60 144 1.0 3.0 0.00 0.00 0.00 79 1008.1
20260506113502 60 190 1.0 4.0 0.00 0.00 0.00 79 1008.2
20260506113004 60 178 1.0 4.0 0.00 0.00 0.00 79 1008.1
20260506112500 60 169 1.0 4.0 0.00 0.00 0.00 79 1008.3
20260506112000 60 152 2.0 6.0 0.00 0.00 0.00 79 1008.3
20260506111622 59 150 3.0 6.0 0.00 0.00 0.00 80 1008.3
20260506111101 59 155 3.0 5.0 0.00 0.00 0.00 80 1008.3
20260506110559 59 175 1.0 3.0 0.00 0.00 0.00 80 1008.3
20260506110059 59 170 1.0 4.0 0.00 0.00 0.00 80 1008.3
20260506105557 59 170 1.0 4.0 0.00 0.00 0.00 80 1008.2
20260506105056 59 151 2.0 6.0 0.00 0.00 0.00 80 1008.2
20260506104604 58 168 1.0 6.0 0.00 0.00 0.00 80 1008.2
20260506104055 58 153 0.0 3.0 0.00 0.00 0.00 80 1008.4
20260506103555 58 153 1.0 4.0 0.00 0.00 0.00 80 1008.3
20260506103059 58 167 2.0 4.0 0.00 0.00 0.00 80 1008.2
20260506102554 58 159 2.0 4.0 0.00 0.00 0.00 79 1008.1
20260506102056 58 144 2.0 4.0 0.00 0.00 0.00 79 1008.1
20260506101553 58 166 1.0 2.0 0.00 0.00 0.00 79 1008.1
20260506101051 59 166 1.0 4.0 0.00 0.00 0.00 79 1008.1
20260506100551 59 171 2.0 4.0 0.00 0.00 0.00 78 1008.1
20260506100050 59 146 2.0 4.0 0.00 0.00 0.00 78 1008.1
20260506095550 59 146 2.0 4.0 0.00 0.00 0.00 78 1008.3
20260506095049 59 161 1.0 4.0 0.00 0.00 0.00 78 1008.2
20260506094549 59 170 2.0 4.0 0.00 0.00 0.00 78 1008.1
20260506094049 59 174 2.0 4.0 0.00 0.00 0.00 78 1008.1
20260506093552 59 171 2.0 4.0 0.00 0.00 0.00 78 1008.1
20260506093053 59 164 2.0 4.0 0.00 0.00 0.00 78 1007.9
20260506092548 59 160 2.0 6.0 0.00 0.00 0.00 78 1008.0
20260506092051 59 159 3.0 6.0 0.00 0.00 0.00 78 1008.1
20260506091547 59 167 2.0 5.0 0.00 0.00 0.00 78 1008.1
20260506091047 59 159 2.0 4.0 0.00 0.00 0.00 78 1008.0
20260506090551 59 158 2.0 5.0 0.00 0.00 0.00 78 1008.0
20260506090046 59 166 2.0 5.0 0.00 0.00 0.00 78 1008.0
20260506085545 59 163 3.0 5.0 0.00 0.00 0.00 78 1007.9
20260506085045 58 174 2.0 4.0 0.00 0.00 0.00 78 1008.0
20260506084545 58 164 3.0 4.0 0.00 0.00 0.00 77 1008.1
20260506084047 58 163 2.0 4.0 0.00 0.00 0.00 77 1008.1
20260506083545 58 164 2.0 4.0 0.00 0.00 0.00 77 1008.0
20260506083059 58 161 2.0 4.0 0.00 0.00 0.00 76 1008.0
20260506082543 58 173 1.0 3.0 0.00 0.00 0.00 76 1008.0
20260506082042 58 173 2.0 3.0 0.00 0.00 0.00 75 1008.1
20260506081548 59 173 1.0 3.0 0.00 0.00 0.00 74 1008.0
20260506081041 59 154 1.0 2.0 0.00 0.00 0.00 74 1008.1
20260506080543 59 154 1.0 2.0 0.00 0.00 0.00 74 1008.1
20260506073039 59 164 1.0 2.0 0.00 0.00 0.00 73 1007.9
20260506072538 59 164 0.0 2.0 0.00 0.00 0.00 73 1007.9
20260506072038 59 164 0.0 2.0 0.00 0.00 0.00 72 1007.8
20260506071538 59 164 1.0 2.0 0.00 0.00 0.00 72 1007.8
20260506071038 59 161 0.0 2.0 0.00 0.00 0.00 72 1007.7
20260506070536 59 161 0.0 2.0 0.00 0.00 0.00 72 1007.7
20260506062032 60 167 1.0 2.0 0.00 0.00 0.00 69 1007.6
20260506061537 60 167 0.0 2.0 0.00 0.00 0.00 69 1007.6
20260506061032 60 167 1.0 2.0 0.00 0.00 0.00 69 1007.6